Tiempo atmosférico en la estación meteorológica de Barx, València/Valencia (340 m.)



Fecha
DESCASC
Temp. máxima en grados centígrados (hora)
DESCASC
Temp. mínima en grados centígrados (hora)
DESCASC
Temp. media en grados centígrados
DESCASC
Racha de viento máxima en m/sg (hora)
DESCASC
Velocidad máxima media en intervalos de 10 minutos(hora)
DESCASC
Precipitaciones diarias en mm
DESCASC
Precipitaciones de 00:00 a 06:00 en mm
DESCASC
Precipitaciones de 06:00 a 12:00 en mm
DESCASC
Precipitaciones de 12:00 a 18:00 en mm
DESCASC
Precipitaciones de 18:00 a 24:00 en mm
DESCASC
05-12-2019 12.8 (14:10) 8.4 (08:00) 10.6 8.33 (19:50) 5 (19:10) 52.6 0.8 0.6 11.2 40
04-12-2019 10.3 (01:40) 8.6 (11:50) 9.5 21.67 (03:40) 10.83 (01:40) 47.2 33.2 10 0.2 3.8
03-12-2019 10.1 (02:10) 7 (21:20) 8.6 12.78 (18:00) 6.67 (17:10) 109.8 5.6 12.8 42.2 49.2
02-12-2019 12.1 (02:10) 6.6 (00:00) 9.4 16.11 (12:30) 8.89 (12:30) 212 22.4 77.8 58 53.8
01-12-2019 16.4 (14:30) 6.4 (00:00) 11.4 8.06 (13:30) 3.33 (11:10) 0 0 0 0 0
30-11-2019 21.6 (15:10) 10.2 (00:00) 15.9 6.67 (09:50) 3.33 (11:00) 0 0 0 0 0
29-11-2019 19.1 (15:00) 13.8 (00:00) 16.5 9.72 (01:30) 5 (13:30) 0 0 0 0 0
28-11-2019 16.7 (14:00) 11.6 (04:10) 14.2 10.83 (07:50) 5.83 (10:30) 0 0 0 0 0
27-11-2019 19 (14:30) 13.1 (00:00) 16.1 15 (13:10) 7.22 (13:10) 0 0 0 0 0
26-11-2019 19.4 (13:10) 12.8 (00:00) 16.1 9.44 (14:20) 5.28 (14:50) 0 0 0 0 0
25-11-2019 17.3 (14:20) 11.1 (01:20) 14.2 11.94 (00:50) 5 (17:00) 0 0 0 0 0
24-11-2019 15.1 (15:20) 8.4 (00:00) 11.8 9.72 (10:00) 5.28 (11:40) 0 0 0 0 0
23-11-2019 14.2 (00:00) 9.5 (00:00) 11.8 13.89 (11:00) 7.22 (06:50) 1.2 0 1.2 0 0
22-11-2019 16.8 (13:40) 7.6 (00:00) 12.2 12.22 (18:50) 6.11 (18:00) 3 0 0 1.6 1.4
21-11-2019 14.4 (16:00) 5.8 (00:00) 10.1 6.94 (15:30) 2.78 (22:20) 0.2 0 0 0 0.2
20-11-2019 16.3 (14:30) 4.8 (08:10) 10.5 7.78 (16:00) 4.72 (16:20) 1.6 0 0 0 1.6
19-11-2019 13.5 (14:00) 1.5 (00:00) 7.5 7.22 (14:30) 3.61 (14:30) 0 0 0 0 0
18-11-2019 13.7 (13:40) 3.5 (00:00) 8.6 8.61 (02:40) 4.44 (02:40) 1.8 1.8 0 0 0
17-11-2019 14.5 (14:00) 6 (00:00) 10.3 10.28 (09:50) 4.72 (17:00) 3 0 0 0 3
16-11-2019 13.4 (15:10) 2.3 (00:00) 7.8 5.83 (11:00) 3.33 (10:40) 0 0 0 0 0
15-11-2019 12.9 (14:30) 5.6 (00:00) 9.2 12.22 (00:30) 6.39 (00:30) 0 0 0 0 0
14-11-2019 15.8 (12:20) 9 (00:00) 12.4 16.11 (13:20) 6.39 (13:20) 0 0 0 0 0
13-11-2019 16.9 (12:00) 9.2 (00:00) 13 14.72 (12:40) 7.22 (12:40) 4.6 1.8 1.4 1.4 0
12-11-2019 16.8 (14:30) 7.2 (00:00) 12 8.89 (23:40) 4.72 (23:40) 0 0 0 0 0
11-11-2019 14.9 (13:40) 6.1 (04:00) 10.5 9.17 (21:10) 5 (15:30) 0 0 0 0 0
10-11-2019 14 (14:20) 7.6 (00:00) 10.8 12.78 (04:10) 6.67 (04:10) 1 1 0 0 0
09-11-2019 16.3 (14:00) 8.5 (00:00) 12.4 12.22 (15:10) 5.83 (15:10) 0.2 0 0 0 0.2
08-11-2019 14.1 (13:50) 7.9 (08:40) 11 12.78 (15:20) 6.39 (15:30) 0 0 0 0 0
07-11-2019 18.8 (15:00) 10.8 (00:00) 14.8 9.44 (08:20) 4.72 (06:50) 0 0 0 0 0
06-11-2019 19.1 (14:30) 10.1 (00:00) 14.6 8.33 (12:10) 4.17 (12:00) 0 0 0 0 0

Gráficas

Temp. máximas Temp. mínimas Temp. medias Precipitaciones Rachas de viento máximas Velocidades máximas media en intervalos de 10 minutos

Datos horarios

Fecha y hora oficial Temperatura (ºC) Velocidad del viento (km/h) Dirección del viento Racha (km/h) Dirección de racha Precipitación (mm) Presión (hPa) Tendencia (hPa) Humedad (%)
2019-12-05 23:00:00 10.4 3 Noroeste 19 Nordeste 0 -- -- 100
2019-12-05 22:00:00 10.4 6 Noroeste 26 Norte 0 -- -- 100
2019-12-05 21:00:00 10.5 15 Norte 27 Norte 1.4 -- -- 100
2019-12-05 20:00:00 10.6 15 Norte 30 Nordeste 5.4 -- -- 100
2019-12-05 19:00:00 10.9 13 Norte 28 Norte 33 -- -- 100
2019-12-05 18:00:00 11.1 5 Norte 15 Noroeste 11.2 -- -- 100
2019-12-05 17:00:00 12.2 5 Noroeste 10 Noroeste 0 -- -- 96
2019-12-05 16:00:00 12.4 3 Norte 12 Oeste 0 -- -- 93
2019-12-05 15:00:00 11.8 4 Norte 13 Noroeste 0 -- -- 96
2019-12-05 14:00:00 12.3 6 Noroeste 12 Noroeste 0 -- -- 100
2019-12-05 13:00:00 11.3 6 Noroeste 12 Noroeste 0 -- -- 100
2019-12-05 12:00:00 10.6 3 Norte 11 Oeste 0 -- -- 100
2019-12-05 11:00:00 10.1 4 Noroeste 10 Oeste 0.4 -- -- 100
2019-12-05 10:00:00 10.3 3 Oeste 7 Nordeste 0 -- -- 100
2019-12-05 09:00:00 8.9 0 Calma 4 Noroeste 0 -- -- 100
2019-12-05 08:00:00 8.4 2 Oeste 4 Noroeste 0 -- -- 100
2019-12-05 07:00:00 8.8 0 Calma 3 Oeste 0.2 -- -- 100
2019-12-05 06:00:00 9 2 Noroeste 8 Nordeste 0 -- -- 100
2019-12-05 05:00:00 8.7 0 Calma 8 Nordeste 0.2 -- -- 100
2019-12-05 04:00:00 8.6 0 Calma 3 Norte 0.2 -- -- 100
2019-12-05 03:00:00 8.8 0 Calma 10 Sur 0 -- -- 100
2019-12-05 02:00:00 8.9 0 Calma 17 Sur 0.2 -- -- 100
2019-12-05 01:00:00 8.9 8 Sur 22 Sudoeste 0.2 -- -- 100
2019-12-05 00:00:00 8.8 6 Sudoeste 19 Oeste 0.6 -- -- 100
2019-12-04 23:00:00 8.8 6 Noroeste 20 Noroeste 1.4 -- -- 100
2019-12-04 22:00:00 8.9 8 Noroeste 18 Noroeste 1.4 -- -- 100
2019-12-04 21:00:00 9.1 9 Norte 18 Noroeste 0.4 -- -- 100
2019-12-04 20:00:00 9.3 5 Norte 10 Noroeste 0 -- -- 100
2019-12-04 19:00:00 9.3 0 Calma 5 Este 0 -- -- 100
2019-12-04 18:00:00 9.4 3 Este 7 Nordeste 0.2 -- -- 100
2019-12-04 17:00:00 9.8 2 Norte 15 Noroeste 0 -- -- 100
2019-12-04 16:00:00 9.7 8 Noroeste 15 Noroeste 0 -- -- 100
2019-12-04 15:00:00 9.7 5 Nordeste 8 Norte 0 -- -- 100
2019-12-04 14:00:00 9.3 4 Noroeste 18 Norte 0 -- -- 100
2019-12-04 13:00:00 8.8 12 Nordeste 24 Norte 0 -- -- 100
2019-12-04 12:00:00 8.6 14 Norte 26 Norte 0 -- -- 100
2019-12-04 11:00:00 9.1 14 Nordeste 49 Nordeste 0.2 -- -- 100
2019-12-04 10:00:00 9.7 22 Norte 45 Norte 1.2 -- -- 100
2019-12-04 09:00:00 9.7 11 Noroeste 35 Norte 0.4 -- -- 100
2019-12-04 08:00:00 9.3 16 Norte 34 Norte 2.2 -- -- 100
2019-12-04 07:00:00 9.2 20 Norte 45 Norte 6 -- -- 100
2019-12-04 06:00:00 9.1 21 Norte 57 Norte 10.8 -- -- 100
2019-12-04 05:00:00 9.4 30 Norte 55 Nordeste 13.4 -- -- 100
2019-12-04 04:00:00 9.8 17 Norte 78 Nordeste 7.4 -- -- 100
2019-12-04 03:00:00 10.1 33 Norte 67 Nordeste 0 -- -- 100
2019-12-04 02:00:00 10.3 33 Norte 67 Nordeste 1.2 -- -- 100
2019-12-04 01:00:00 10.2 30 Norte 58 Norte 0.4 -- -- 100
2019-12-04 00:00:00 8.8 6 Noroeste 19 Oeste 1.4 -- -- 100
2019-12-03 23:00:00 7.8 8 Noroeste 24 Norte 14.8 -- -- 100
2019-12-03 22:00:00 7.2 8 Norte 19 Norte 7.6 -- -- 100
2019-12-03 21:00:00 7.2 10 Norte 31 Norte 11.6 -- -- 100
2019-12-03 20:00:00 7.6 12 Norte 32 Nordeste 8.4 -- -- 100
2019-12-03 19:00:00 7.3 14 Norte 41 Norte 5.4 -- -- 100
2019-12-03 18:00:00 7.8 23 Norte 46 Norte 2.6 -- -- 100
2019-12-03 17:00:00 8.2 23 Norte 40 Norte 4.6 -- -- 100
2019-12-03 16:00:00 8.2 11 Noroeste 40 Norte 6.2 -- -- 100
2019-12-03 15:00:00 8.5 15 Norte 36 Sudeste 9 -- -- 100
2019-12-03 14:00:00 8.8 12 Este 36 Norte 6.6 -- -- 100
2019-12-03 13:00:00 8.6 20 Norte 43 Norte 13.2 -- -- 100
2019-12-03 12:00:00 8.2 16 Norte 34 Norte 7.4 -- -- 100
2019-12-03 11:00:00 8.7 5 Noroeste 24 Norte 3.4 -- -- 100
2019-12-03 10:00:00 9.2 8 Sudeste 27 Sur 0 -- -- 100
2019-12-03 09:00:00 9.2 8 Sudeste 27 Norte 0.2 -- -- 100
2019-12-03 08:00:00 9.6 9 Norte 26 Sudeste 0.4 -- -- 100
2019-12-03 07:00:00 9.9 6 Sudeste 30 Sur 1.4 -- -- 100
2019-12-03 06:00:00 10 10 Este 22 Sudeste 1 -- -- 100
2019-12-03 05:00:00 9.7 5 Sudeste 30 Sudeste 0.2 -- -- 100
2019-12-03 04:00:00 9.7 6 Sur 24 Este 0.4 -- -- 100
2019-12-03 03:00:00 9.8 5 Este 29 Este 1.8 -- -- 100
2019-12-03 02:00:00 10 5 Sudeste 19 Este 0.6 -- -- 100
2019-12-03 01:00:00 10 6 Sudoeste 27 Norte 1.6 -- -- 100
2019-12-03 00:00:00 9.5 5 Sudeste 23 Este 1.6 -- -- 100
2019-12-02 23:00:00 9.3 8 Sudeste 33 Este 7.2 -- -- 100
2019-12-02 22:00:00 10.4 8 Sudeste 28 Sur 10 -- -- 100
2019-12-02 21:00:00 10.4 7 Nordeste 36 Sudeste 10.4 -- -- 100
2019-12-02 20:00:00 10.4 9 Norte 31 Sudeste 12.4 -- -- 100
2019-12-02 19:00:00 10.5 6 Sudeste 30 Nordeste 12.2 -- -- 100
2019-12-02 18:00:00 10.8 8 Sudeste 31 Este 10.6 -- -- 100
2019-12-02 17:00:00 10.9 5 Este 33 Este 16.4 -- -- 100
2019-12-02 16:00:00 10.8 11 Nordeste 40 Nordeste 11 -- -- 100
2019-12-02 15:00:00 10.9 4 Norte 31 Norte 2.6 -- -- 100
2019-12-02 14:00:00 10.8 7 Norte 23 Sudeste 0.8 -- -- 100
2019-12-02 13:00:00 10.8 8 Nordeste 58 Norte 16.6 -- -- 100
2019-12-02 12:00:00 10.4 29 Norte 54 Norte 22.4 -- -- 100
2019-12-02 11:00:00 10.2 6 Norte 35 Nordeste 10.2 -- -- 100
2019-12-02 10:00:00 9.6 7 Noroeste 37 Norte 11.2 -- -- 100
2019-12-02 09:00:00 9.5 9 Nordeste 32 Nordeste 10 -- -- 100
2019-12-02 08:00:00 10 17 Nordeste 30 Norte 13.2 -- -- 100
2019-12-02 07:00:00 10.1 9 Norte 34 Nordeste 10.8 -- -- 100
2019-12-02 06:00:00 10.2 17 Norte 38 Norte 9 -- -- 100
2019-12-02 05:00:00 10.5 8 Noroeste 41 Norte 8.2 -- -- 99
2019-12-02 04:00:00 10.9 10 Norte 25 Norte 4.6 -- -- 97
2019-12-02 03:00:00 11.3 9 Norte 21 Nordeste 0.6 -- -- 95
2019-12-02 02:00:00 11.9 4 Sudeste 18 Sudeste 0 -- -- 88
2019-12-02 01:00:00 11.2 6 Norte 18 Norte 0 -- -- 97
2019-12-02 00:00:00 6.6 2 Sur 7 Sur 0 -- -- 91
2019-12-01 23:00:00 7.4 2 Este 6 Sudeste 0 -- -- 85
2019-12-01 22:00:00 7.3 3 Sur 8 Sur 0 -- -- 83
2019-12-01 21:00:00 6.9 3 Sur 8 Sur 0 -- -- 83
2019-12-01 20:00:00 8.4 5 Sur 9 Sur 0 -- -- 77
2019-12-01 19:00:00 9.2 5 Sur 9 Sur 0 -- -- 75
2019-12-01 18:00:00 10.9 3 Sur 6 Sur 0 -- -- 70
2019-12-01 17:00:00 14.2 0 Calma 8 Oeste 0 -- -- 61
2019-12-01 16:00:00 15.7 2 Sudoeste 10 Oeste 0 -- -- 55
2019-12-01 15:00:00 15.8 5 Oeste 14 Noroeste 0 -- -- 54
2019-12-01 14:00:00 15.7 6 Noroeste 29 Noroeste 0 -- -- 54
2019-12-01 13:00:00 15.9 9 Noroeste 21 Noroeste 0 -- -- 52
2019-12-01 12:00:00 15.2 10 Noroeste 23 Noroeste 0 -- -- 60
2019-12-01 11:00:00 14.5 9 Noroeste 22 Noroeste 0 -- -- 65
2019-12-01 10:00:00 13.5 4 Noroeste 13 Noroeste 0 -- -- 70
2019-12-01 09:00:00 12.1 2 Este 11 Noroeste 0 -- -- 80
2019-12-01 08:00:00 13 6 Norte 15 Norte 0 -- -- 73
2019-12-01 07:00:00 13.2 4 Nordeste 12 Este 0 -- -- 75
2019-12-01 06:00:00 13 0 Calma 13 Este 0 -- -- 73
2019-12-01 05:00:00 12.8 4 Nordeste 9 Este 0 -- -- 71
2019-12-01 04:00:00 12.5 0 Calma 16 Oeste 0 -- -- 73
2019-12-01 03:00:00 13.1 5 Sudeste 14 Noroeste 0 -- -- 69
2019-12-01 02:00:00 12.3 4 Sur 13 Oeste 0 -- -- 78
2019-12-01 01:00:00 12.5 2 Sudoeste 12 Sudoeste 0 -- -- 77
2019-12-01 00:00:00 11.9 3 Sudeste 6 Sur 0 -- -- 82
2019-11-30 23:00:00 12.8 2 Norte 6 Sudeste 0 -- -- 79
2019-11-30 22:00:00 12.9 2 Norte 8 Noroeste 0 -- -- 79
2019-11-30 21:00:00 10.5 0 Calma 6 Sur 0 -- -- 85
2019-11-30 20:00:00 11.6 0 Calma 4 Sur 0 -- -- 79
2019-11-30 19:00:00 13.8 3 Sur 10 Sudeste 0 -- -- 71
2019-11-30 18:00:00 15.8 5 Sur 8 Sur 0 -- -- 64
2019-11-30 17:00:00 18.8 0 Calma 17 Noroeste 0 -- -- 56
2019-11-30 16:00:00 21 6 Oeste 19 Noroeste 0 -- -- 48
2019-11-30 15:00:00 21 10 Noroeste 23 Oeste 0 -- -- 50
2019-11-30 14:00:00 20.4 9 Oeste 21 Sudoeste 0 -- -- 55
2019-11-30 13:00:00 19.4 9 Oeste 21 Noroeste 0 -- -- 60
2019-11-30 12:00:00 18.3 8 Oeste 20 Oeste 0 -- -- 62
2019-11-30 11:00:00 17.2 12 Oeste 23 Oeste 0 -- -- 65
2019-11-30 10:00:00 15.4 3 Sudoeste 24 Oeste 0 -- -- 74
2019-11-30 09:00:00 13.1 6 Sudoeste 17 Sudoeste 0 -- -- 81
2019-11-30 08:00:00 13.1 3 Sudoeste 15 Este 0 -- -- 80
2019-11-30 07:00:00 12.6 5 Sudeste 18 Oeste 0 -- -- 83
2019-11-30 06:00:00 12.4 8 Sur 19 Sudoeste 0 -- -- 83
2019-11-30 05:00:00 12.2 3 Sudoeste 13 Oeste 0 -- -- 85
2019-11-30 04:00:00 13.1 2 Norte 10 Norte 0 -- -- 82
2019-11-30 03:00:00 13.2 2 Nordeste 10 Sur 0 -- -- 82
2019-11-30 02:00:00 13 4 Sudeste 13 Sudeste 0 -- -- 82
2019-11-30 01:00:00 13.7 4 Sur 19 Sudoeste 0 -- -- 80
2019-11-30 00:00:00 13.8 7 Sudoeste 17 Sudoeste 0 -- -- 79
2019-11-29 23:00:00 14.1 5 Sudoeste 17 Sudoeste 0 -- -- 78
2019-11-29 22:00:00 14.3 6 Sudoeste 16 Sudoeste 0 -- -- 78
2019-11-29 21:00:00 14.5 4 Sudoeste 17 Sudoeste 0 -- -- 77
2019-11-29 20:00:00 14.7 7 Oeste 17 Oeste 0 -- -- 77
2019-11-29 19:00:00 15.2 2 Noroeste 10 Oeste 0 -- -- 75
2019-11-29 18:00:00 16.2 6 Nordeste 15 Norte 0 -- -- 70
2019-11-29 17:00:00 17.1 4 Norte 14 Noroeste 0 -- -- 67
2019-11-29 16:00:00 19.1 6 Oeste 28 Noroeste 0 -- -- 60
2019-11-29 15:00:00 19.1 12 Noroeste 32 Noroeste 0 -- -- 62
2019-11-29 14:00:00 18 13 Noroeste 33 Noroeste 0 -- -- 65
2019-11-29 13:00:00 17.8 13 Norte 27 Noroeste 0 -- -- 66
2019-11-29 12:00:00 17.2 12 Noroeste 23 Noroeste 0 -- -- 65
2019-11-29 11:00:00 16.5 9 Norte 20 Norte 0 -- -- 68
2019-11-29 10:00:00 15.7 3 Noroeste 14 Norte 0 -- -- 69
2019-11-29 09:00:00 15 8 Norte 18 Noroeste 0 -- -- 69
2019-11-29 08:00:00 14.7 8 Norte 20 Norte 0 -- -- 68
2019-11-29 07:00:00 14.8 8 Oeste 31 Oeste 0 -- -- 66
2019-11-29 06:00:00 14.5 5 Oeste 28 Oeste 0 -- -- 65
2019-11-29 05:00:00 14.8 14 Noroeste 30 Oeste 0 -- -- 64
2019-11-29 04:00:00 14.9 9 Oeste 31 Oeste 0 -- -- 62
2019-11-29 03:00:00 14.9 11 Noroeste 30 Noroeste 0 -- -- 61
2019-11-29 02:00:00 14.8 7 Norte 35 Oeste 0 -- -- 60
2019-11-29 01:00:00 14.8 12 Oeste 33 Noroeste 0 -- -- 60
2019-11-29 00:00:00 14.2 9 Noroeste 32 Oeste 0 -- -- 62
2019-11-28 23:00:00 12.6 15 Sudoeste 30 Oeste 0 -- -- 68
2019-11-28 22:00:00 12.7 11 Sudoeste 29 Oeste 0 -- -- 69
2019-11-28 21:00:00 11.9 6 Oeste 21 Oeste 0 -- -- 75
2019-11-28 20:00:00 12 4 Norte 15 Noroeste 0 -- -- 76
2019-11-28 19:00:00 12.8 6 Norte 15 Norte 0 -- -- 72
2019-11-28 18:00:00 13.5 2 Norte 13 Oeste 0 -- -- 70
2019-11-28 17:00:00 14.4 4 Noroeste 15 Oeste 0 -- -- 69
2019-11-28 16:00:00 15.2 7 Oeste 28 Oeste 0 -- -- 66
2019-11-28 15:00:00 15.8 9 Noroeste 30 Norte 0 -- -- 62
2019-11-28 14:00:00 16.7 13 Noroeste 30 Noroeste 0 -- -- 60
2019-11-28 13:00:00 16.4 12 Noroeste 32 Oeste 0 -- -- 61
2019-11-28 12:00:00 16 11 Oeste 36 Noroeste 0 -- -- 62
2019-11-28 11:00:00 14.2 10 Noroeste 37 Noroeste 0 -- -- 67
2019-11-28 10:00:00 13.1 9 Noroeste 29 Noroeste 0 -- -- 71
2019-11-28 09:00:00 12.5 16 Norte 32 Noroeste 0 -- -- 71
2019-11-28 08:00:00 12.1 13 Norte 39 Oeste 0 -- -- 71
2019-11-28 07:00:00 12.4 10 Norte 22 Norte 0 -- -- 69
2019-11-28 06:00:00 12.3 8 Norte 18 Norte 0 -- -- 68
2019-11-28 05:00:00 12 8 Norte 18 Norte 0 -- -- 68
2019-11-28 04:00:00 11.9 2 Norte 22 Norte 0 -- -- 67
2019-11-28 03:00:00 12.1 10 Norte 20 Norte 0 -- -- 66
2019-11-28 02:00:00 12.8 8 Norte 23 Nordeste 0 -- -- 65
2019-11-28 01:00:00 13.2 9 Norte 28 Norte 0 -- -- 63
2019-11-28 00:00:00 13.5 9 Nordeste 23 Noroeste 0 -- -- 62
2019-11-27 23:00:00 13.1 7 Norte 20 Noroeste 0 -- -- 66
2019-11-27 22:00:00 13.9 11 Noroeste 21 Nordeste 0 -- -- 61
2019-11-27 21:00:00 13.7 9 Nordeste 21 Norte 0 -- -- 61
2019-11-27 20:00:00 14 9 Norte 30 Noroeste 0 -- -- 58
2019-11-27 19:00:00 14.7 12 Noroeste 32 Noroeste 0 -- -- 55
2019-11-27 18:00:00 14.9 10 Norte 38 Noroeste 0 -- -- 55
2019-11-27 17:00:00 15.7 13 Norte 39 Noroeste 0 -- -- 52
2019-11-27 16:00:00 17.6 15 Noroeste 39 Noroeste 0 -- -- 47
2019-11-27 15:00:00 18.7 16 Norte 43 Noroeste 0 -- -- 47
2019-11-27 14:00:00 18.3 23 Noroeste 54 Noroeste 0 -- -- 48
2019-11-27 06:00:00 -- -- -- -- -- -- -- -- --
2019-11-27 05:00:00 16.4 8 Oeste 27 Oeste 0 -- -- 67
2019-11-27 04:00:00 17.3 13 Noroeste 30 Noroeste 0 -- -- 62
2019-11-27 03:00:00 16.7 11 Oeste 33 Oeste 0 -- -- 67
2019-11-27 02:00:00 17 10 Oeste 28 Oeste 0 -- -- 64
2019-11-27 01:00:00 17 13 Sudoeste 33 Sudoeste 0 -- -- 63
2019-11-27 00:00:00 16.4 8 Sudoeste 27 Sudoeste 0 -- -- 67
2019-11-26 23:00:00 15.9 6 Sur 22 Noroeste 0 -- -- 72
2019-11-26 22:00:00 16.2 10 Sur 30 Oeste 0 -- -- 71
2019-11-26 21:00:00 17.2 8 Oeste 28 Oeste 0 -- -- 66
2019-11-26 20:00:00 17 7 Oeste 24 Sudoeste 0 -- -- 70
2019-11-26 19:00:00 16.1 8 Sur 23 Sudoeste 0 -- -- 74
2019-11-26 18:00:00 16.4 4 Nordeste 14 Norte 0 -- -- 73
2019-11-26 17:00:00 17.7 6 Noroeste 18 Noroeste 0 -- -- 68
2019-11-26 16:00:00 19.4 6 Oeste 22 Oeste 0 -- -- 63
2019-11-26 15:00:00 19 13 Noroeste 34 Noroeste 0 -- -- 62
2019-11-26 14:00:00 19.1 17 Noroeste 30 Noroeste 0 -- -- 57
2019-11-26 13:00:00 19 10 Oeste 32 Oeste 0 -- -- 54
2019-11-26 12:00:00 17.7 14 Noroeste 29 Oeste 0 -- -- 58
2019-11-26 11:00:00 16 9 Noroeste 30 Oeste 0 -- -- 64
2019-11-26 10:00:00 15.4 10 Noroeste 26 Oeste 0 -- -- 66
2019-11-26 09:00:00 13.5 12 Sudoeste 27 Sudoeste 0 -- -- 73
2019-11-26 08:00:00 13 10 Sudoeste 23 Sudoeste 0 -- -- 75
2019-11-26 07:00:00 13.3 3 Este 19 Sudoeste 0 -- -- 75
2019-11-26 06:00:00 12.9 4 Sudeste 16 Sudoeste 0 -- -- 79
2019-11-26 05:00:00 13.3 6 Sudoeste 22 Sudoeste 0 -- -- 80
2019-11-26 04:00:00 13.5 4 Nordeste 10 Nordeste 0 -- -- 81
2019-11-26 03:00:00 12.8 2 Nordeste 13 Nordeste 0 -- -- 86
2019-11-26 02:00:00 13.4 8 Norte 26 Norte 0 -- -- 84
2019-11-26 01:00:00 14.2 11 Norte 22 Norte 0 -- -- 80
2019-11-26 00:00:00 14.8 13 Norte 25 Norte 0 -- -- 77
2019-11-25 23:00:00 14.6 6 Norte 13 Noroeste 0 -- -- 78
2019-11-25 22:00:00 14.7 8 Norte 23 Norte 0 -- -- 76
2019-11-25 21:00:00 15.1 13 Norte 20 Noroeste 0 -- -- 78
2019-11-25 20:00:00 15.1 9 Norte 20 Noroeste 0 -- -- 79
2019-11-25 19:00:00 15 10 Norte 30 Noroeste 0 -- -- 78
2019-11-25 18:00:00 15.2 14 Norte 33 Noroeste 0 -- -- 76
2019-11-25 17:00:00 15.9 18 Norte 31 Noroeste 0 -- -- 72
2019-11-25 16:00:00 16.9 14 Norte 42 Norte 0 -- -- 66
2019-11-25 15:00:00 16.8 14 Norte 36 Norte 0 -- -- 67
2019-11-25 14:00:00 16.6 16 Norte 31 Noroeste 0 -- -- 68
2019-11-25 13:00:00 16.2 16 Norte 35 Noroeste 0 -- -- 69
2019-11-25 12:00:00 16.5 13 Noroeste 29 Noroeste 0 -- -- 67
2019-11-25 11:00:00 16.1 15 Noroeste 25 Noroeste 0 -- -- 69
2019-11-25 10:00:00 14.8 13 Norte 32 Noroeste 0 -- -- 72
2019-11-25 09:00:00 13.6 12 Norte 26 Noroeste 0 -- -- 74
2019-11-25 08:00:00 12.9 6 Noroeste 26 Oeste 0 -- -- 74
2019-11-25 07:00:00 13.1 10 Noroeste 31 Noroeste 0 -- -- 71
2019-11-25 06:00:00 12.2 7 Nordeste 24 Noroeste 0 -- -- 72
2019-11-25 05:00:00 12 5 Norte 30 Oeste 0 -- -- 71
2019-11-25 04:00:00 12.1 14 Noroeste 36 Oeste 0 -- -- 69
2019-11-25 03:00:00 11.4 6 Noroeste 28 Noroeste 0 -- -- 68
2019-11-25 02:00:00 11.6 11 Noroeste 35 Noroeste 0 -- -- 65
2019-11-25 01:00:00 11.3 11 Norte 43 Noroeste 0 -- -- 64
2019-11-25 00:00:00 11.6 10 Noroeste 29 Oeste 0 -- -- 62
2019-11-24 23:00:00 11.1 7 Noroeste 23 Oeste 0 -- -- 63
2019-11-24 22:00:00 10.7 12 Norte 24 Noroeste 0 -- -- 60
2019-11-24 21:00:00 10.7 13 Norte 28 Noroeste 0 -- -- 58
2019-11-24 20:00:00 11 11 Norte 25 Noroeste 0 -- -- 58
2019-11-24 19:00:00 11.2 6 Norte 32 Noroeste 0 -- -- 60
2019-11-24 18:00:00 11.8 6 Norte 25 Noroeste 0 -- -- 58
2019-11-24 17:00:00 13 11 Noroeste 29 Noroeste 0 -- -- 54
2019-11-24 16:00:00 14.5 17 Norte 30 Noroeste 0 -- -- 49
2019-11-24 15:00:00 14.8 8 Noroeste 25 Oeste 0 -- -- 51
2019-11-24 14:00:00 14.1 13 Noroeste 30 Oeste 0 -- -- 51
2019-11-24 13:00:00 13.9 13 Noroeste 32 Noroeste 0 -- -- 49
2019-11-24 12:00:00 13.2 19 Noroeste 35 Noroeste 0 -- -- 52
2019-11-24 11:00:00 12.3 15 Noroeste 32 Noroeste 0 -- -- 55
2019-11-24 10:00:00 10.6 14 Noroeste 35 Oeste 0 -- -- 61
2019-11-24 09:00:00 9.2 11 Noroeste 28 Noroeste 0 -- -- 66
2019-11-24 08:00:00 8.5 12 Norte 24 Noroeste 0 -- -- 67
2019-11-24 07:00:00 8.4 10 Norte 26 Noroeste 0 -- -- 68
2019-11-24 06:00:00 9 14 Noroeste 32 Noroeste 0 -- -- 65
2019-11-24 05:00:00 9.6 16 Noroeste 32 Noroeste 0 -- -- 62
2019-11-24 04:00:00 9.7 13 Norte 24 Noroeste 0 -- -- 61
2019-11-24 03:00:00 10.2 10 Norte 32 Noroeste 0 -- -- 58
2019-11-24 02:00:00 10.7 12 Norte 32 Noroeste 0 -- -- 57
2019-11-24 01:00:00 10.6 14 Norte 29 Norte 0 -- -- 58
2019-11-24 00:00:00 10.7 13 Norte 24 Noroeste 0 -- -- 59
2019-11-23 23:00:00 11.3 14 Norte 36 Noroeste 0 -- -- 56
2019-11-23 22:00:00 11.5 17 Norte 33 Noroeste 0 -- -- 56
2019-11-23 21:00:00 11.8 13 Norte 28 Norte 0 -- -- 55
2019-11-23 20:00:00 11.8 12 Norte 30 Norte 0 -- -- 57
2019-11-23 19:00:00 11.9 16 Norte 33 Noroeste 0 -- -- 56
2019-11-23 18:00:00 12 13 Norte 34 Noroeste 0 -- -- 56
2019-11-23 17:00:00 12.9 18 Norte 41 Noroeste 0 -- -- 50
2019-11-23 16:00:00 13.7 17 Noroeste 44 Noroeste 0 -- -- 51
2019-11-23 15:00:00 13.3 24 Norte 50 Noroeste 0 -- -- 52
2019-11-23 14:00:00 12.9 21 Noroeste 43 Oeste 0 -- -- 57
2019-11-23 13:00:00 13.2 19 Noroeste 45 Noroeste 0 -- -- 58
2019-11-23 12:00:00 10.4 22 Norte 46 Norte 0.6 -- -- 71
2019-11-23 11:00:00 11.6 24 Noroeste 50 Noroeste 0.4 -- -- 68
2019-11-23 10:00:00 11.7 18 Noroeste 44 Noroeste 0 -- -- 64
2019-11-23 09:00:00 11.3 15 Norte 34 Noroeste 0 -- -- 65
2019-11-23 08:00:00 10.3 12 Norte 35 Noroeste 0 -- -- 70
2019-11-23 07:00:00 10 15 Norte 48 Norte 0.2 -- -- 69
2019-11-23 06:00:00 11.1 12 Oeste 36 Oeste 0 -- -- 68
2019-11-23 05:00:00 12.6 11 Noroeste 38 Oeste 0 -- -- 65
2019-11-23 04:00:00 12.4 7 Sudoeste 27 Sudoeste 0 -- -- 69
2019-11-23 03:00:00 13.3 8 Noroeste 36 Noroeste 0 -- -- 66
2019-11-23 02:00:00 13.5 7 Noroeste 28 Oeste 0 -- -- 62
2019-11-23 01:00:00 14 7 Sudoeste 36 Oeste 0 -- -- 60
2019-11-23 00:00:00 14.2 10 Oeste 37 Oeste 0 -- -- 72
2019-11-22 23:00:00 14.5 8 Norte 33 Sudoeste 0 -- -- 77
2019-11-22 22:00:00 14.5 12 Sur 37 Sur 0 -- -- 73
2019-11-22 21:00:00 14.2 20 Sur 41 Sur 0.4 -- -- 81
2019-11-22 20:00:00 14.1 15 Sur 37 Sur 0 -- -- 80
2019-11-22 19:00:00 13.2 19 Sur 44 Sur 1 -- -- 89
2019-11-22 18:00:00 13.4 22 Sur 39 Sur 1 -- -- 85
2019-11-22 17:00:00 14.3 17 Sur 40 Sur 0.2 -- -- 81
2019-11-22 16:00:00 14.8 17 Sur 36 Sudoeste 0.4 -- -- 78
2019-11-22 15:00:00 16.6 13 Sur 28 Sudeste 0 -- -- 64
2019-11-22 14:00:00 16.8 9 Sudoeste 21 Sur 0 -- -- 65
2019-11-22 13:00:00 15.9 9 Sudoeste 26 Sudoeste 0 -- -- 67
2019-11-22 12:00:00 15.6 6 Sur 20 Sur 0 -- -- 67
2019-11-22 11:00:00 14.4 5 Sur 13 Sudeste 0 -- -- 70
2019-11-22 10:00:00 12.7 6 Sur 13 Sur 0 -- -- 78
2019-11-22 09:00:00 9.6 2 Sur 7 Noroeste 0 -- -- 91
2019-11-22 08:00:00 9.4 3 Sudeste 8 Sur 0 -- -- 90
2019-11-22 07:00:00 8.9 2 Norte 6 Sur 0 -- -- 93
2019-11-22 06:00:00 7.8 3 Sur 10 Sur 0 -- -- 95
2019-11-22 05:00:00 7.9 3 Sur 8 Sudeste 0 -- -- 92
2019-11-22 04:00:00 8.5 3 Sur 10 Sur 0 -- -- 91
2019-11-22 03:00:00 9.2 4 Sudeste 8 Sudeste 0 -- -- 90
2019-11-22 02:00:00 9.4 2 Sudoeste 6 Sur 0 -- -- 92
2019-11-22 01:00:00 9.4 5 Sur 7 Sur 0 -- -- 89
2019-11-22 00:00:00 11.3 0 Calma 11 Sur 0.2 -- -- 86
2019-11-21 23:00:00 11.6 5 Sur 17 Sudoeste 0 -- -- 80
2019-11-21 22:00:00 11.1 6 Sur 11 Sur 0 -- -- 83
2019-11-21 21:00:00 11.7 5 Sur 13 Sur 0 -- -- 73
2019-11-21 20:00:00 11.6 6 Sur 12 Sudoeste 0 -- -- 72
2019-11-21 19:00:00 12.3 5 Sur 13 Sur 0 -- -- 73
2019-11-21 18:00:00 12.7 5 Sur 13 Sur 0 -- -- 71
2019-11-21 17:00:00 13.8 5 Sur 13 Sudoeste 0 -- -- 68
2019-11-21 16:00:00 14.4 8 Sudoeste 25 Sudoeste 0 -- -- 65
2019-11-21 15:00:00 13.6 5 Sudoeste 17 Sudoeste 0 -- -- 66
2019-11-21 14:00:00 13.8 4 Oeste 18 Sudoeste 0 -- -- 67
2019-11-21 13:00:00 13.4 6 Oeste 19 Oeste 0 -- -- 67
2019-11-21 12:00:00 12.9 6 Oeste 17 Sudoeste 0 -- -- 71
2019-11-21 11:00:00 12.4 5 Sudoeste 11 Sudoeste 0 -- -- 75
2019-11-21 10:00:00 11 2 Norte 14 Nordeste 0 -- -- 76
2019-11-21 09:00:00 10 7 Nordeste 14 Este 0 -- -- 78
2019-11-21 08:00:00 -- -- -- -- -- -- -- -- --
2019-11-21 07:00:00 -- -- -- -- -- -- -- -- --
2019-11-21 06:00:00 -- -- -- -- -- -- -- -- --
2019-11-21 05:00:00 -- -- -- -- -- -- -- -- --
2019-11-21 04:00:00 -- -- -- -- -- -- -- -- --
2019-11-21 03:00:00 -- -- -- -- -- -- -- -- --
2019-11-21 02:00:00 -- -- -- -- -- -- -- -- --
2019-11-21 01:00:00 -- -- -- -- -- -- -- -- --
2019-11-21 00:00:00 -- -- -- -- -- -- -- -- --
2019-11-20 23:00:00 -- -- -- -- -- -- -- -- --
2019-11-20 22:00:00 -- -- -- -- -- -- -- -- --
2019-11-20 21:00:00 -- -- -- -- -- -- -- -- --
2019-11-20 20:00:00 -- -- -- -- -- -- -- -- --
2019-11-20 19:00:00 10.2 8 Sur 15 Sur 0 -- -- 67
2019-11-20 18:00:00 10.6 2 Sudoeste 23 Sur 0 -- -- 68
2019-11-20 17:00:00 12 10 Sur 27 Sur 0 -- -- 63
2019-11-20 16:00:00 13.3 16 Sur 28 Sur 0 -- -- 58
2019-11-20 15:00:00 15.5 11 Sur 21 Sur 0 -- -- 52
2019-11-20 14:00:00 16 7 Sudoeste 17 Sur 0 -- -- 45
2019-11-20 13:00:00 14.1 7 Noroeste 13 Noroeste 0 -- -- 52
2019-11-20 12:00:00 12.9 6 Noroeste 14 Oeste 0 -- -- 58
2019-11-20 11:00:00 11.5 7 Oeste 13 Oeste 0 -- -- 60
2019-11-20 10:00:00 9.2 0 Calma 7 Este 0 -- -- 65
2019-11-20 09:00:00 6.4 3 Este 8 Oeste 0 -- -- 77
2019-11-20 08:00:00 4.9 0 Calma 4 Este 0 -- -- 82
2019-11-20 07:00:00 5.4 0 Calma 5 Sudeste 0 -- -- 80
2019-11-20 06:00:00 6.3 0 Calma 8 Sudoeste 0 -- -- 76
2019-11-20 05:00:00 7.4 6 Sudoeste 13 Sur 0 -- -- 70
2019-11-20 04:00:00 7.5 4 Sudeste 13 Sur 0 -- -- 69
2019-11-20 03:00:00 7.8 6 Sudeste 9 Sudeste 0 -- -- 68
2019-11-20 02:00:00 7.5 4 Sur 9 Sur 0 -- -- 70
2019-11-20 01:00:00 7.9 2 Sur 12 Sudoeste 0 -- -- 69
2019-11-20 00:00:00 7.7 4 Sur 9 Sur 0 -- -- 68
2019-11-19 23:00:00 7.9 3 Sudoeste 11 Sudeste 0 -- -- 69
2019-11-19 22:00:00 8.4 3 Sudoeste 15 Sudoeste 0 -- -- 65
2019-11-19 21:00:00 8.5 3 Sur 12 Sudoeste 0 -- -- 65
2019-11-19 20:00:00 7.8 5 Sur 10 Sur 0 -- -- 68
2019-11-19 19:00:00 7.8 6 Sur 13 Sudoeste 0 -- -- 69
2019-11-19 18:00:00 8.9 6 Sur 9 Sur 0 -- -- 64
2019-11-19 17:00:00 11.5 0 Calma 13 Noroeste 0 -- -- 56
2019-11-19 16:00:00 13.2 4 Oeste 21 Noroeste 0 -- -- 46
2019-11-19 15:00:00 13.3 10 Noroeste 26 Noroeste 0 -- -- 41
2019-11-19 14:00:00 13.5 5 Oeste 23 Noroeste 0 -- -- 46
2019-11-19 13:00:00 12.2 9 Oeste 21 Oeste 0 -- -- 51
2019-11-19 12:00:00 11.1 5 Noroeste 19 Oeste 0 -- -- 52
2019-11-19 11:00:00 9.2 8 Noroeste 19 Oeste 0 -- -- 55
2019-11-19 10:00:00 7.3 6 Noroeste 13 Noroeste 0 -- -- 65
2019-11-19 09:00:00 4.8 4 Sudoeste 19 Sudoeste 0 -- -- 75
2019-11-19 08:00:00 3.8 5 Sur 13 Sudeste 0 -- -- 77
2019-11-19 07:00:00 3.6 6 Sur 12 Sur 0 -- -- 80
2019-11-19 06:00:00 2 3 Sur 7 Sudeste 0 -- -- 88
2019-11-19 05:00:00 3.2 0 Calma 6 Sudeste 0 -- -- 84
2019-11-19 04:00:00 2.1 0 Calma 6 Nordeste 0 -- -- 90
2019-11-19 03:00:00 1.9 0 Calma 5 Nordeste 0 -- -- 90
2019-11-19 02:00:00 3.3 0 Calma 4 Noroeste 0 -- -- 87
2019-11-19 01:00:00 4.9 0 Calma 9 Sur 0 -- -- 79
2019-11-19 00:00:00 3.8 4 Este 9 Sudeste 0 -- -- 83
2019-11-18 23:00:00 3.9 0 Calma 5 Nordeste 0 -- -- 87
2019-11-18 22:00:00 4.1 4 Sur 7 Sudeste 0 -- -- 88
2019-11-18 21:00:00 4.7 0 Calma 3 Sudeste 0 -- -- 88
2019-11-18 20:00:00 6.3 0 Calma 3 Norte 0 -- -- 86
2019-11-18 19:00:00 8.1 0 Calma 6 Sur 0 -- -- 86
2019-11-18 18:00:00 9.5 0 Calma 4 Sur 0 -- -- 81
2019-11-18 17:00:00 11 3 Oeste 11 Norte 0 -- -- 76
2019-11-18 16:00:00 11.7 6 Norte 10 Norte 0 -- -- 68
2019-11-18 15:00:00 12.7 0 Calma 8 Nordeste 0 -- -- 59
2019-11-18 14:00:00 13.6 3 Noroeste 10 Oeste 0 -- -- 54
2019-11-18 13:00:00 12.9 5 Nordeste 18 Oeste 0 -- -- 55
2019-11-18 12:00:00 12.5 11 Oeste 21 Oeste 0 -- -- 67
2019-11-18 11:00:00 11.1 9 Nordeste 15 Norte 0 -- -- 63
2019-11-18 10:00:00 9.1 4 Noroeste 12 Oeste 0 -- -- 79
2019-11-18 09:00:00 6.9 2 Sur 9 Este 0 -- -- 91
2019-11-18 08:00:00 7 0 Calma 8 Nordeste 0 -- -- 89
2019-11-18 07:00:00 7.9 4 Nordeste 10 Noroeste 0 -- -- 87
2019-11-18 06:00:00 8.2 6 Norte 15 Norte 0 -- -- 87
2019-11-18 05:00:00 8.2 5 Noroeste 13 Noroeste 0 -- -- 86
2019-11-18 04:00:00 8.2 0 Calma 9 Sudoeste 0 -- -- 89
2019-11-18 03:00:00 9 9 Sudoeste 31 Sudoeste 0.2 -- -- 89
2019-11-18 02:00:00 8.8 12 Sudoeste 26 Sudoeste 0.4 -- -- 94
2019-11-18 01:00:00 8.8 5 Noroeste 15 Noroeste 1.2 -- -- 92
2019-11-18 00:00:00 9.3 10 Norte 20 Noroeste 2.2 -- -- 93
2019-11-17 23:00:00 10.3 6 Noroeste 22 Noroeste 0.8 -- -- 86
2019-11-17 22:00:00 11.2 10 Oeste 32 Oeste 0 -- -- 71
2019-11-17 21:00:00 11.1 13 Oeste 34 Sudoeste 0 -- -- 70
2019-11-17 20:00:00 10.7 8 Norte 24 Norte 0 -- -- 71
2019-11-17 19:00:00 10.8 4 Sur 30 Oeste 0 -- -- 70
2019-11-17 18:00:00 11.8 14 Noroeste 31 Noroeste 0 -- -- 65
2019-11-17 17:00:00 12.1 17 Noroeste 32 Noroeste 0 -- -- 62
2019-11-17 16:00:00 13.7 13 Noroeste 35 Oeste 0 -- -- 51
2019-11-17 15:00:00 14.2 12 Noroeste 30 Noroeste 0 -- -- 49
2019-11-17 14:00:00 14.5 14 Noroeste 32 Noroeste 0 -- -- 46
2019-11-17 13:00:00 13.5 10 Noroeste 32 Noroeste 0 -- -- 47
2019-11-17 12:00:00 11.8 14 Noroeste 34 Noroeste 0 -- -- 49
2019-11-17 11:00:00 10.8 15 Oeste 36 Noroeste 0 -- -- 53
2019-11-17 10:00:00 8.7 16 Noroeste 37 Noroeste 0 -- -- 56
2019-11-17 09:00:00 7.1 8 Noroeste 28 Noroeste 0 -- -- 60
2019-11-17 08:00:00 6.1 12 Noroeste 30 Noroeste 0 -- -- 63
2019-11-17 07:00:00 6.4 9 Norte 22 Noroeste 0 -- -- 63
2019-11-17 06:00:00 6.4 7 Norte 18 Noroeste 0 -- -- 65
2019-11-17 05:00:00 6.4 8 Norte 19 Norte 0 -- -- 65
2019-11-17 04:00:00 7.1 6 Norte 22 Noroeste 0 -- -- 62
2019-11-17 03:00:00 6.7 7 Nordeste 25 Norte 0 -- -- 63
2019-11-17 02:00:00 7.3 8 Norte 14 Norte 0 -- -- 62
2019-11-17 01:00:00 7.6 5 Norte 17 Noroeste 0 -- -- 60
2019-11-17 00:00:00 8.2 6 Nordeste 12 Nordeste 0 -- -- 58
2019-11-16 23:00:00 8 9 Norte 18 Norte 0 -- -- 60
2019-11-16 22:00:00 8.2 9 Norte 20 Norte 0 -- -- 57
2019-11-16 21:00:00 8.2 9 Norte 15 Norte 0 -- -- 59
2019-11-16 20:00:00 8.7 6 Norte 13 Nordeste 0 -- -- 58
2019-11-16 19:00:00 9.3 6 Norte 12 Norte 0 -- -- 55
2019-11-16 18:00:00 9.8 5 Norte 8 Nordeste 0 -- -- 57
2019-11-16 17:00:00 11.6 0 Calma 15 Noroeste 0 -- -- 54
2019-11-16 16:00:00 13 5 Oeste 16 Oeste 0 -- -- 45
2019-11-16 15:00:00 13.1 7 Oeste 20 Norte 0 -- -- 48
2019-11-16 14:00:00 12.6 8 Noroeste 19 Noroeste 0 -- -- 47
2019-11-16 13:00:00 11.9 9 Oeste 17 Noroeste 0 -- -- 52
2019-11-16 12:00:00 11.1 8 Oeste 17 Noroeste 0 -- -- 57
2019-11-16 11:00:00 8.6 9 Noroeste 21 Oeste 0 -- -- 64
2019-11-16 10:00:00 6.5 4 Oeste 15 Noroeste 0 -- -- 71
2019-11-16 09:00:00 5.3 3 Nordeste 14 Este 0 -- -- 77
2019-11-16 08:00:00 3.4 3 Sur 9 Sudeste 0 -- -- 85
2019-11-16 07:00:00 3.4 4 Nordeste 8 Nordeste 0 -- -- 88
2019-11-16 06:00:00 3.3 2 Este 4 Este 0 -- -- 84
2019-11-16 05:00:00 5.6 0 Calma 10 Norte 0 -- -- 74
2019-11-16 04:00:00 5.9 7 Nordeste 10 Nordeste 0 -- -- 72
2019-11-16 03:00:00 6.4 6 Norte 13 Nordeste 0 -- -- 71
2019-11-16 02:00:00 6.9 8 Nordeste 12 Nordeste 0 -- -- 70
2019-11-16 01:00:00 7 7 Nordeste 13 Norte 0 -- -- 72
2019-11-16 00:00:00 7.7 6 Norte 12 Norte 0 -- -- 67
2019-11-15 23:00:00 7.7 4 Norte 13 Noroeste 0 -- -- 68
2019-11-15 22:00:00 7.9 6 Norte 16 Noroeste 0 -- -- 67
2019-11-15 21:00:00 8.9 6 Norte 21 Noroeste 0 -- -- 63
2019-11-15 20:00:00 8.8 5 Oeste 16 Oeste 0 -- -- 61
2019-11-15 19:00:00 9.1 3 Norte 13 Noroeste 0 -- -- 59
2019-11-15 18:00:00 10 7 Norte 25 Noroeste 0 -- -- 57
2019-11-15 17:00:00 11.4 10 Noroeste 26 Noroeste 0 -- -- 52
2019-11-15 16:00:00 11.8 5 Noroeste 20 Noroeste 0 -- -- 51
2019-11-15 15:00:00 12.6 11 Noroeste 26 Noroeste 0 -- -- 47
2019-11-15 14:00:00 12.7 12 Noroeste 30 Noroeste 0 -- -- 48
2019-11-15 13:00:00 12 17 Noroeste 30 Oeste 0 -- -- 48
2019-11-15 12:00:00 11.2 10 Noroeste 30 Noroeste 0 -- -- 58
2019-11-15 11:00:00 9.9 14 Noroeste 35 Noroeste 0 -- -- 62
2019-11-15 10:00:00 9 11 Noroeste 23 Noroeste 0 -- -- 67
2019-11-15 09:00:00 7.4 4 Nordeste 23 Norte 0 -- -- 70
2019-11-15 08:00:00 6 2 Norte 17 Norte 0 -- -- 78
2019-11-15 07:00:00 6.4 8 Norte 16 Nordeste 0 -- -- 75
2019-11-15 06:00:00 7.1 7 Norte 15 Norte 0 -- -- 73
2019-11-15 05:00:00 7.4 6 Norte 22 Noroeste 0 -- -- 71
2019-11-15 04:00:00 7.9 8 Norte 28 Noroeste 0 -- -- 68
2019-11-15 03:00:00 8.5 13 Noroeste 34 Noroeste 0 -- -- 63
2019-11-15 02:00:00 8.5 10 Norte 34 Norte 0 -- -- 69
2019-11-15 01:00:00 9.4 19 Norte 44 Norte 0 -- -- 65
2019-11-15 00:00:00 9.8 5 Norte 16 Nordeste 0 -- -- 61
2019-11-14 23:00:00 9.9 11 Norte 30 Noroeste 0 -- -- 59
2019-11-14 22:00:00 9.8 9 Noroeste 36 Oeste 0 -- -- 59
2019-11-14 21:00:00 9.8 9 Noroeste 25 Noroeste 0 -- -- 62
2019-11-14 20:00:00 9.4 6 Oeste 37 Oeste 0 -- -- 63
2019-11-14 19:00:00 9.9 7 Noroeste 27 Noroeste 0 -- -- 63
2019-11-14 18:00:00 9.3 10 Norte 32 Noroeste 0 -- -- 63
2019-11-14 17:00:00 10.3 15 Norte 36 Norte 0 -- -- 56
2019-11-14 16:00:00 10.8 10 Norte 37 Oeste 0 -- -- 52
2019-11-14 15:00:00 10.6 8 Oeste 38 Norte 0 -- -- 58
2019-11-14 14:00:00 11.4 21 Norte 58 Noroeste 0 -- -- 62
2019-11-14 13:00:00 14.2 16 Noroeste 36 Norte 0 -- -- 57
2019-11-14 12:00:00 14.8 9 Noroeste 40 Noroeste 0 -- -- 60
2019-11-14 11:00:00 13.7 14 Oeste 42 Oeste 0 -- -- 61
2019-11-14 10:00:00 13.6 17 Noroeste 47 Norte 0 -- -- 59
2019-11-14 09:00:00 11.7 4 Este 14 Noroeste 0 -- -- 73
2019-11-14 08:00:00 11.8 5 Nordeste 15 Norte 0 -- -- 73
2019-11-14 07:00:00 11.9 3 Oeste 13 Oeste 0 -- -- 72
2019-11-14 06:00:00 13.4 3 Sudeste 19 Sudoeste 0 -- -- 65
2019-11-14 05:00:00 14.1 10 Sudoeste 22 Sudoeste 0 -- -- 66
2019-11-14 04:00:00 14.7 7 Sudoeste 25 Sudoeste 0 -- -- 63
2019-11-14 03:00:00 15.2 9 Sudoeste 35 Oeste 0 -- -- 63
2019-11-14 02:00:00 14.7 9 Sudoeste 31 Oeste 0 -- -- 67
2019-11-14 01:00:00 14.5 10 Sudoeste 24 Oeste 0 -- -- 68
2019-11-14 00:00:00 14.1 8 Sudoeste 27 Sudoeste 0 -- -- 69
2019-11-13 23:00:00 12.6 9 Sur 18 Sur 0 -- -- 66
2019-11-13 22:00:00 11.5 4 Sur 8 Sudeste 0 -- -- 77
2019-11-13 21:00:00 10.1 5 Sur 10 Sur 0 -- -- 85
2019-11-13 20:00:00 9.2 5 Sur 10 Sur 0 -- -- 90
2019-11-13 19:00:00 9.4 2 Sudeste 5 Sudeste 0 -- -- 90
2019-11-13 18:00:00 11.5 2 Sudeste 5 Oeste 0 -- -- 87
2019-11-13 17:00:00 14.3 4 Norte 12 Norte 0 -- -- 81
2019-11-13 16:00:00 15 3 Norte 12 Norte 0 -- -- 79
2019-11-13 15:00:00 14.9 5 Este 21 Norte 0 -- -- 82
2019-11-13 14:00:00 15.3 12 Norte 28 Norte 0.6 -- -- 77
2019-11-13 13:00:00 12.9 17 Norte 53 Norte 0.8 -- -- 89
2019-11-13 12:00:00 16.9 12 Norte 31 Norte 0 -- -- 72
2019-11-13 11:00:00 14.8 13 Norte 32 Norte 0 -- -- 77
2019-11-13 10:00:00 14.7 13 Norte 30 Norte 0 -- -- 76
2019-11-13 09:00:00 13.8 9 Noroeste 26 Oeste 0 -- -- 78
2019-11-13 08:00:00 12.7 5 Noroeste 27 Nordeste 0 -- -- 81
2019-11-13 07:00:00 11.6 5 Sudoeste 37 Oeste 1.4 -- -- 86
2019-11-13 06:00:00 11.3 10 Sudoeste 31 Oeste 1.4 -- -- 84
2019-11-13 05:00:00 11.9 11 Oeste 27 Oeste 0.4 -- -- 79
2019-11-13 04:00:00 12.4 12 Sudoeste 30 Oeste 0 -- -- 64
2019-11-13 03:00:00 11.9 11 Sudoeste 32 Sudoeste 0 -- -- 62
2019-11-13 02:00:00 11.7 12 Oeste 26 Oeste 0 -- -- 63
2019-11-13 01:00:00 12.5 13 Norte 35 Noroeste 0 -- -- 60
2019-11-13 00:00:00 12.8 14 Norte 32 Noroeste 0 -- -- 52
2019-11-12 23:00:00 12.2 12 Norte 24 Noroeste 0 -- -- 53
2019-11-12 22:00:00 11.2 5 Nordeste 19 Noroeste 0 -- -- 57
2019-11-12 21:00:00 11.3 6 Norte 14 Norte 0 -- -- 59
2019-11-12 20:00:00 12 7 Norte 15 Norte 0 -- -- 55
2019-11-12 19:00:00 12.4 6 Norte 16 Noroeste 0 -- -- 55
2019-11-12 18:00:00 14 8 Norte 22 Noroeste 0 -- -- 44
2019-11-12 17:00:00 15.4 8 Norte 19 Norte 0 -- -- 44
2019-11-12 16:00:00 16.6 9 Noroeste 26 Noroeste 0 -- -- 42
2019-11-12 15:00:00 16.5 9 Oeste 26 Noroeste 0 -- -- 39
2019-11-12 14:00:00 16.2 9 Noroeste 26 Norte 0 -- -- 44
2019-11-12 13:00:00 14.8 10 Noroeste 22 Oeste 0 -- -- 43
2019-11-12 12:00:00 13.6 11 Noroeste 20 Noroeste 0 -- -- 48
2019-11-12 11:00:00 11.7 8 Noroeste 19 Noroeste 0 -- -- 51
2019-11-12 10:00:00 10.2 4 Norte 9 Noroeste 0 -- -- 52
2019-11-12 09:00:00 7.8 5 Este 8 Este 0 -- -- 62
2019-11-12 08:00:00 7.7 2 Nordeste 6 Este 0 -- -- 61
2019-11-12 07:00:00 7.5 3 Nordeste 10 Nordeste 0 -- -- 64
2019-11-12 06:00:00 8 3 Norte 12 Noroeste 0 -- -- 64
2019-11-12 05:00:00 8.4 4 Nordeste 10 Norte 0 -- -- 61
2019-11-12 04:00:00 8.5 6 Nordeste 12 Nordeste 0 -- -- 63
2019-11-12 03:00:00 8.2 5 Nordeste 12 Nordeste 0 -- -- 67
2019-11-12 02:00:00 8.2 8 Norte 12 Norte 0 -- -- 72
2019-11-12 01:00:00 8.8 8 Norte 12 Norte 0 -- -- 76
2019-11-12 00:00:00 9.3 4 Norte 15 Norte 0 -- -- 75
2019-11-11 23:00:00 11.4 8 Norte 28 Norte 0 -- -- 67
2019-11-11 22:00:00 13.1 16 Norte 33 Norte 0 -- -- 58
2019-11-11 21:00:00 13.7 16 Norte 28 Norte 0 -- -- 56
2019-11-11 20:00:00 13.6 16 Norte 32 Norte 0 -- -- 58
2019-11-11 19:00:00 12.8 4 Norte 12 Noroeste 0 -- -- 60
2019-11-11 18:00:00 12.7 6 Norte 9 Norte 0 -- -- 59
2019-11-11 17:00:00 13.4 8 Norte 24 Noroeste 0 -- -- 56
2019-11-11 16:00:00 14.1 12 Noroeste 32 Noroeste 0 -- -- 51
2019-11-11 15:00:00 14.4 13 Noroeste 24 Noroeste 0 -- -- 50
2019-11-11 14:00:00 14.6 14 Norte 24 Norte 0 -- -- 46
2019-11-11 13:00:00 14 11 Noroeste 24 Noroeste 0 -- -- 52
2019-11-11 12:00:00 12.7 14 Noroeste 25 Norte 0 -- -- 51
2019-11-11 11:00:00 11 9 Noroeste 20 Noroeste 0 -- -- 58
2019-11-11 10:00:00 9.7 8 Noroeste 20 Noroeste 0 -- -- 58
2019-11-11 09:00:00 8.3 8 Noroeste 22 Noroeste 0 -- -- 61
2019-11-11 08:00:00 7.2 9 Noroeste 18 Noroeste 0 -- -- 63
2019-11-11 07:00:00 6.6 7 Noroeste 22 Noroeste 0 -- -- 63
2019-11-11 06:00:00 6.5 6 Norte 18 Noroeste 0 -- -- 64
2019-11-11 05:00:00 6.1 7 Nordeste 16 Norte 0 -- -- 65
2019-11-11 04:00:00 6.1 6 Norte 13 Noroeste 0 -- -- 64
2019-11-11 03:00:00 6.4 6 Norte 15 Nordeste 0 -- -- 66
2019-11-11 02:00:00 6.6 8 Norte 17 Norte 0 -- -- 70
2019-11-11 01:00:00 7.4 9 Norte 18 Norte 0 -- -- 68
2019-11-11 00:00:00 8.1 12 Norte 21 Norte 0 -- -- 65
2019-11-10 23:00:00 7.9 9 Norte 19 Norte 0 -- -- 67
2019-11-10 22:00:00 8.7 12 Norte 26 Noroeste 0 -- -- 64
2019-11-10 21:00:00 9.8 15 Norte 32 Norte 0 -- -- 58
2019-11-10 20:00:00 11.2 20 Norte 33 Noroeste 0 -- -- 52
2019-11-10 19:00:00 12.1 13 Norte 27 Norte 0 -- -- 49
2019-11-10 18:00:00 12.1 13 Norte 26 Norte 0 -- -- 49
2019-11-10 17:00:00 12.7 18 Norte 39 Noroeste 0 -- -- 47
2019-11-10 16:00:00 13.1 15 Norte 30 Oeste 0 -- -- 48
2019-11-10 15:00:00 13.3 10 Noroeste 34 Noroeste 0 -- -- 49
2019-11-10 14:00:00 13.8 13 Noroeste 35 Noroeste 0 -- -- 46
2019-11-10 13:00:00 13.3 15 Noroeste 34 Noroeste 0 -- -- 49
2019-11-10 12:00:00 12 11 Noroeste 31 Noroeste 0 -- -- 56
2019-11-10 11:00:00 10.4 12 Noroeste 25 Noroeste 0 -- -- 65
2019-11-10 10:00:00 9.1 9 Norte 24 Norte 0 -- -- 75
2019-11-10 09:00:00 8.4 9 Norte 19 Noroeste 0 -- -- 77
2019-11-10 08:00:00 7.7 7 Norte 14 Norte 0 -- -- 79
2019-11-10 07:00:00 8 12 Norte 25 Noroeste 0 -- -- 80
2019-11-10 06:00:00 8.2 13 Noroeste 26 Noroeste 0 -- -- 84
2019-11-10 05:00:00 8.4 10 Norte 46 Norte 1 -- -- 84
2019-11-10 04:00:00 11.6 13 Norte 29 Noroeste 0 -- -- 74
2019-11-10 03:00:00 12 13 Norte 30 Norte 0 -- -- 72
2019-11-10 02:00:00 12.1 18 Norte 40 Noroeste 0 -- -- 74
2019-11-10 01:00:00 11.8 8 Norte 31 Noroeste 0 -- -- 75
2019-11-10 00:00:00 11.8 9 Norte 32 Noroeste 0 -- -- 74
2019-11-09 23:00:00 11.3 5 Noroeste 40 Oeste 0 -- -- 75
2019-11-09 22:00:00 11.4 4 Este 26 Oeste 0 -- -- 73
2019-11-09 21:00:00 11.9 5 Oeste 22 Sudoeste 0.2 -- -- 64
2019-11-09 20:00:00 13.1 9 Oeste 26 Oeste 0 -- -- 61
2019-11-09 19:00:00 13.7 8 Norte 23 Noroeste 0 -- -- 46
2019-11-09 18:00:00 13.8 7 Noroeste 19 Oeste 0 -- -- 43
2019-11-09 17:00:00 14.1 4 Nordeste 31 Noroeste 0 -- -- 44
2019-11-09 16:00:00 14.5 13 Noroeste 44 Noroeste 0 -- -- 41
2019-11-09 15:00:00 15.7 17 Noroeste 37 Norte 0 -- -- 37
2019-11-09 14:00:00 16.3 15 Oeste 33 Noroeste 0 -- -- 42
2019-11-09 13:00:00 15.5 15 Noroeste 30 Noroeste 0 -- -- 44
2019-11-09 12:00:00 14.2 11 Oeste 34 Noroeste 0 -- -- 49
2019-11-09 11:00:00 12.5 16 Noroeste 30 Noroeste 0 -- -- 52
2019-11-09 10:00:00 11.1 12 Noroeste 32 Noroeste 0 -- -- 53
2019-11-09 09:00:00 9.6 14 Oeste 29 Oeste 0 -- -- 58
2019-11-09 08:00:00 8.7 9 Norte 19 Norte 0 -- -- 60
2019-11-09 07:00:00 8.6 9 Norte 21 Norte 0 -- -- 59
2019-11-09 06:00:00 9.1 8 Norte 16 Norte 0 -- -- 58
2019-11-09 05:00:00 9.4 5 Norte 16 Norte 0 -- -- 55
2019-11-09 04:00:00 9.5 10 Norte 21 Noroeste 0 -- -- 56
2019-11-09 03:00:00 10 5 Norte 17 Noroeste 0 -- -- 54
2019-11-09 02:00:00 10.1 11 Norte 29 Noroeste 0 -- -- 53
2019-11-09 01:00:00 10.9 13 Norte 32 Norte 0 -- -- 50
2019-11-09 00:00:00 11.3 13 Norte 26 Noroeste 0 -- -- 48
2019-11-08 23:00:00 11.4 13 Norte 29 Norte 0 -- -- 47
2019-11-08 22:00:00 11.2 5 Norte 28 Norte 0 -- -- 49
2019-11-08 21:00:00 11.3 8 Norte 26 Noroeste 0 -- -- 48
2019-11-08 20:00:00 11.6 12 Norte 27 Noroeste 0 -- -- 49
2019-11-08 19:00:00 11.6 8 Nordeste 18 Norte 0 -- -- 50
2019-11-08 18:00:00 12.2 9 Norte 28 Noroeste 0 -- -- 49
2019-11-08 17:00:00 12.9 13 Noroeste 38 Noroeste 0 -- -- 46
2019-11-08 16:00:00 13.6 20 Noroeste 46 Noroeste 0 -- -- 47
2019-11-08 15:00:00 13.7 17 Noroeste 43 Noroeste 0 -- -- 47
2019-11-08 14:00:00 14 19 Noroeste 39 Noroeste 0 -- -- 43
2019-11-08 13:00:00 13.5 17 Noroeste 40 Noroeste 0 -- -- 45
2019-11-08 12:00:00 13 17 Noroeste 35 Noroeste 0 -- -- 46
2019-11-08 11:00:00 11.3 18 Norte 37 Noroeste 0 -- -- 51
2019-11-08 10:00:00 9.9 18 Noroeste 39 Noroeste 0 -- -- 57
2019-11-08 09:00:00 8.4 12 Norte 26 Norte 0 -- -- 63
2019-11-08 08:00:00 8.2 12 Norte 34 Norte 0 -- -- 63
2019-11-08 07:00:00 8.6 15 Norte 31 Norte 0 -- -- 63
2019-11-08 06:00:00 8.8 13 Norte 34 Norte 0 -- -- 62
2019-11-08 05:00:00 8.7 12 Norte 22 Norte 0 -- -- 66
2019-11-08 04:00:00 8.6 9 Norte 23 Norte 0 -- -- 64
2019-11-08 03:00:00 9.3 9 Norte 25 Noroeste 0 -- -- 63
2019-11-08 02:00:00 9.9 12 Noroeste 28 Noroeste 0 -- -- 61
2019-11-08 01:00:00 10.1 15 Norte 36 Norte 0 -- -- 60
2019-11-08 00:00:00 11.2 11 Norte 23 Nordeste 0 -- -- 48
2019-11-07 23:00:00 11.5 6 Oeste 25 Oeste 0 -- -- 43
2019-11-07 22:00:00 11.3 3 Norte 9 Nordeste 0 -- -- 45
2019-11-07 21:00:00 12 5 Norte 12 Nordeste 0 -- -- 40
2019-11-07 20:00:00 13.6 8 Norte 20 Norte 0 -- -- 36
2019-11-07 19:00:00 15 10 Norte 30 Noroeste 0 -- -- 32
2019-11-07 18:00:00 16.5 15 Norte 30 Norte 0 -- -- 56
2019-11-07 17:00:00 17.4 8 Noroeste 21 Noroeste 0 -- -- 59
2019-11-07 16:00:00 18.3 4 Noroeste 30 Noroeste 0 -- -- 58
2019-11-07 15:00:00 18.8 6 Oeste 33 Norte 0 -- -- 60
2019-11-07 14:00:00 17.8 15 Noroeste 32 Norte 0 -- -- 62
2019-11-07 13:00:00 17.6 6 Oeste 26 Oeste 0 -- -- 62
2019-11-07 12:00:00 16.8 10 Noroeste 25 Noroeste 0 -- -- 64
2019-11-07 11:00:00 16.9 8 Oeste 28 Oeste 0 -- -- 64
2019-11-07 10:00:00 14 9 Oeste 31 Sudoeste 0 -- -- 70
2019-11-07 09:00:00 12.9 13 Sudoeste 34 Oeste 0 -- -- 71
2019-11-07 08:00:00 11.8 15 Sudoeste 32 Oeste 0 -- -- 71
2019-11-07 07:00:00 11.6 14 Sudoeste 31 Sudoeste 0 -- -- 68
2019-11-07 06:00:00 11.6 9 Sudoeste 25 Oeste 0 -- -- 66
2019-11-07 05:00:00 11.8 8 Norte 24 Oeste 0 -- -- 64
2019-11-07 04:00:00 11.4 8 Norte 15 Noroeste 0 -- -- 65
2019-11-07 03:00:00 11 3 Noroeste 11 Este 0 -- -- 67
2019-11-07 02:00:00 11 0 Calma 14 Nordeste 0 -- -- 68
2019-11-07 01:00:00 11.1 8 Sudoeste 24 Sudoeste 0 -- -- 66
2019-11-07 00:00:00 11.4 7 Sudoeste 22 Noroeste 0 -- -- 62
2019-11-06 23:00:00 11.8 4 Oeste 13 Oeste 0 -- -- 60
2019-11-06 22:00:00 12.8 5 Norte 14 Norte 0 -- -- 57
2019-11-06 21:00:00 13.1 7 Norte 14 Norte 0 -- -- 56
2019-11-06 20:00:00 14 6 Norte 21 Noroeste 0 -- -- 53
2019-11-06 19:00:00 14.5 6 Noroeste 23 Noroeste 0 -- -- 54
2019-11-06 18:00:00 15.1 8 Oeste 27 Noroeste 0 -- -- 55
2019-11-06 17:00:00 17.1 5 Noroeste 20 Sudoeste 0 -- -- 49
2019-11-06 16:00:00 18.9 6 Oeste 18 Noroeste 0 -- -- 41
2019-11-06 15:00:00 18.8 9 Noroeste 25 Noroeste 0 -- -- 42
2019-11-06 14:00:00 18 10 Noroeste 23 Norte 0 -- -- 44
2019-11-06 13:00:00 17.5 10 Noroeste 30 Noroeste 0 -- -- 44
2019-11-06 12:00:00 16.7 15 Noroeste 28 Noroeste 0 -- -- 46
2019-11-06 11:00:00 15.2 9 Noroeste 24 Noroeste 0 -- -- 53
2019-11-06 10:00:00 13.1 13 Noroeste 25 Noroeste 0 -- -- 58
2019-11-06 09:00:00 11.4 8 Noroeste 22 Noroeste 0 -- -- 64
2019-11-06 08:00:00 10.2 8 Norte 19 Norte 0 -- -- 69
2019-11-06 07:00:00 10.2 8 Norte 22 Norte 0 -- -- 70
2019-11-06 06:00:00 10.5 7 Norte 21 Noroeste 0 -- -- 69
2019-11-06 05:00:00 10.4 9 Norte 18 Noroeste 0 -- -- 73
2019-11-06 04:00:00 11.2 9 Norte 22 Norte 0 -- -- 69
2019-11-06 03:00:00 11.9 12 Norte 26 Norte 0 -- -- 67
2019-11-06 02:00:00 11.9 10 Norte 24 Noroeste 0 -- -- 66
2019-11-06 01:00:00 12.5 8 Norte 25 Noroeste 0 -- -- 63
2019-11-06 00:00:00 12.7 7 Norte 21 Norte 0 -- -- 63